When you browse on this site, cookies collect data to enhance your experience and personalize the content and advertising you see.
Visit our Privacy Policy to learn more. By continuing to use the site, you agree to this use of cookies and data.
  • In Hungary
  • List of Countries
  • For 7 days
  • Water Temperature
  • Satellite Maps
  • Weather Map
  • News
  • Weather Widgets
  • user-avatar
    Login

    Hourly Weather Kashtany

    Today, 24 February, Sunday

    Time Temperature Precipitation Wind Pressure Humidity
    00:00 -8°C° 0 mm 5 mps 765 mmHg 81%
    01:00 -8°C° 0 mm 5 mps 765 mmHg 82%
    02:00 -8°C° 0 mm 5 mps 765 mmHg 84%
    03:00 -8°C° 0 mm 5 mps 765 mmHg 84%
    04:00 -8°C° 0 mm 5 mps 765 mmHg 85%
    05:00 -8°C° 0 mm 5 mps 765 mmHg 86%
    06:00 -8°C° 0 mm 5 mps 765 mmHg 84%
    07:00 -7°C° 0 mm 5 mps 766 mmHg 83%
    08:00 -7°C° 0 mm 5 mps 766 mmHg 82%
    09:00 -5°C° 0 mm 4 mps 766 mmHg 79%
    10:00 -4°C° 0 mm 4 mps 766 mmHg 77%
    11:00 -2°C° 0 mm 4 mps 766 mmHg 74%
    12:00 -2°C° 0 mm 4 mps 766 mmHg 75%
    13:00 -2°C° 0 mm 4 mps 766 mmHg 75%
    14:00 -1°C° 0 mm 4 mps 766 mmHg 75%
    15:00 -2°C° 0 mm 4 mps 766 mmHg 78%
    16:00 -3°C° 0 mm 4 mps 766 mmHg 81%
    17:00 -3°C° 0 mm 4 mps 766 mmHg 83%
    18:00 -4°C° 0 mm 3 mps 766 mmHg 84%
    19:00 -4°C° 0 mm 3 mps 766 mmHg 85%
    20:00 -4°C° 0 mm 2 mps 766 mmHg 86%
    21:00 -4°C° 0 mm 2 mps 766 mmHg 84%
    22:00 -4°C° 0 mm 2 mps 766 mmHg 82%
    23:00 -4°C° 0 mm 2 mps 767 mmHg 81%

    Tomorrow, 25 February, Monday

    Time Temperature Precipitation Wind Pressure Humidity
    00:00 -4°C° 0 mm 2 mps 767 mmHg 79%
    01:00 -4°C° 0 mm 2 mps 767 mmHg 77%
    02:00 -4°C° 0 mm 2 mps 767 mmHg 76%
    03:00 -4°C° 0 mm 2 mps 766 mmHg 74%
    04:00 -4°C° 0 mm 2 mps 766 mmHg 71%
    05:00 -4°C° 0 mm 2 mps 765 mmHg 69%
    06:00 -1°C° 0 mm 1 mps 765 mmHg 65%
    07:00 -1°C° 0 mm 1 mps 765 mmHg 61%
    08:00 0°C° 0 mm 1 mps 766 mmHg 56%
    09:00 +1°C° 0 mm 1 mps 765 mmHg 53%
    10:00 +2°C° 0 mm 1 mps 765 mmHg 49%
    11:00 +2°C° 0 mm 2 mps 765 mmHg 46%
    12:00 +3°C° 0 mm 2 mps 764 mmHg 50%
    13:00 +2°C° 0 mm 3 mps 764 mmHg 55%
    14:00 +3°C° 0 mm 3 mps 763 mmHg 59%
    15:00 +2°C° 0 mm 3 mps 762 mmHg 64%
    16:00 +1°C° 0 mm 3 mps 762 mmHg 69%
    17:00 +1°C° 0 mm 3 mps 761 mmHg 75%
    18:00 0°C° 0 mm 3 mps 761 mmHg 76%
    19:00 0°C° 0 mm 3 mps 760 mmHg 77%
    20:00 0°C° 0 mm 3 mps 760 mmHg 78%
    21:00 0°C° 0 mm 3 mps 759 mmHg 79%
    22:00 0°C° 0 mm 4 mps 759 mmHg 79%
    23:00 0°C° 0 mm 4 mps 758 mmHg 80%

    Day after tomorrow, 26 February, Tuesday

    Time Temperature Precipitation Wind Pressure Humidity
    00:00 0°C° 0 mm 4 mps 758 mmHg 80%
    01:00 +1°C° 0 mm 4 mps 757 mmHg 81%
    02:00 +2°C° 0 mm 3 mps 756 mmHg 82%
    03:00 +1°C° 0 mm 3 mps 756 mmHg 84%
    04:00 +1°C° 0 mm 3 mps 755 mmHg 86%
    05:00 +1°C° 0 mm 3 mps 755 mmHg 88%
    06:00 +1°C° 0 mm 3 mps 755 mmHg 87%
    07:00 +2°C° 0 mm 2 mps 755 mmHg 86%
    08:00 +2°C° 0 mm 2 mps 755 mmHg 85%
    09:00 +2°C° 0 mm 3 mps 754 mmHg 85%
    10:00 +2°C° 0 mm 3 mps 754 mmHg 84%
    11:00 +2°C° 0 mm 3 mps 753 mmHg 84%
    12:00 +1°C° 0.1 mm 4 mps 753 mmHg 84%
    13:00 +1°C° 0.1 mm 4 mps 752 mmHg 85%
    14:00 +1°C° 0.1 mm 5 mps 751 mmHg 86%
    15:00 +1°C° 0.1 mm 4 mps 751 mmHg 86%
    16:00 +1°C° 0.1 mm 4 mps 750 mmHg 86%
    17:00 +1°C° 0.1 mm 4 mps 750 mmHg 86%
    18:00 +1°C° 0.1 mm 4 mps 750 mmHg 86%
    19:00 +1°C° 0.1 mm 3 mps 750 mmHg 86%
    20:00 +1°C° 0.1 mm 3 mps 749 mmHg 87%
    21:00 +1°C° 0.2 mm 3 mps 749 mmHg 87%
    22:00 +2°C° 0.2 mm 2 mps 749 mmHg 88%
    23:00 +2°C° 0.2 mm 2 mps 749 mmHg 89%

    27 February, Wednesday

    Time Temperature Precipitation Wind Pressure Humidity
    00:00 +1°C° 0 mm 2 mps 749 mmHg 90%
    01:00 +1°C° 0 mm 2 mps 749 mmHg 91%
    02:00 +1°C° 0 mm 1 mps 748 mmHg 92%
    03:00 -1°C° 0 mm 2 mps 749 mmHg 92%
    04:00 -1°C° 0 mm 2 mps 749 mmHg 92%
    05:00 -1°C° 0 mm 2 mps 749 mmHg 93%
    06:00 -1°C° 0 mm 3 mps 749 mmHg 92%
    07:00 0°C° 0 mm 3 mps 750 mmHg 90%
    08:00 -1°C° 0 mm 4 mps 750 mmHg 89%
    09:00 -1°C° 0 mm 4 mps 751 mmHg 85%
    10:00 0°C° 0 mm 5 mps 751 mmHg 81%
    11:00 +1°C° 0 mm 5 mps 751 mmHg 77%
    12:00 +1°C° 0.1 mm 5 mps 751 mmHg 74%
    13:00 +1°C° 0.1 mm 5 mps 751 mmHg 72%
    14:00 +2°C° 0.1 mm 5 mps 752 mmHg 70%
    15:00 +1°C° 0.1 mm 5 mps 752 mmHg 71%
    16:00 +1°C° 0.1 mm 4 mps 752 mmHg 73%
    17:00 +1°C° 0.1 mm 4 mps 753 mmHg 75%
    18:00 0°C° 0 mm 4 mps 753 mmHg 78%
    19:00 0°C° 0 mm 3 mps 753 mmHg 81%
    20:00 0°C° 0 mm 3 mps 754 mmHg 83%
    21:00 -1°C° 0 mm 3 mps 754 mmHg 85%
    22:00 -1°C° 0 mm 3 mps 754 mmHg 87%
    23:00 -1°C° 0 mm 3 mps 755 mmHg 89%

    28 February, Thursday

    Time Temperature Precipitation Wind Pressure Humidity
    00:00 -1°C° 0 mm 3 mps 755 mmHg 89%
    01:00 -2°C° 0 mm 2 mps 755 mmHg 88%
    02:00 -2°C° 0 mm 2 mps 755 mmHg 88%
    03:00 -2°C° 0 mm 2 mps 755 mmHg 87%
    04:00 0°C° 0 mm 1 mps 754 mmHg 85%
    05:00 -1°C° 0 mm 1 mps 754 mmHg 84%
    06:00 0°C° 0 mm 1 mps 754 mmHg 81%
    07:00 0°C° 0 mm 1 mps 754 mmHg 78%
    08:00 +1°C° 0 mm 1 mps 754 mmHg 74%
    09:00 +2°C° 0 mm 1 mps 754 mmHg 71%
    10:00 +2°C° 0 mm 2 mps 754 mmHg 69%
    11:00 +2°C° 0 mm 3 mps 754 mmHg 66%
    12:00 +1°C° 0 mm 4 mps 753 mmHg 67%
    13:00 +1°C° 0 mm 4 mps 753 mmHg 67%
    14:00 +1°C° 0 mm 5 mps 752 mmHg 68%
    15:00 +1°C° 0 mm 5 mps 752 mmHg 70%
    16:00 +1°C° 0 mm 5 mps 751 mmHg 73%
    17:00 +1°C° 0 mm 5 mps 751 mmHg 75%
    18:00 +1°C° 0 mm 5 mps 751 mmHg 79%
    19:00 +1°C° 0 mm 5 mps 750 mmHg 82%
    20:00 -1°C° 0 mm 6 mps 750 mmHg 86%
    21:00 +1°C° 0 mm 6 mps 750 mmHg 86%
    22:00 +2°C° 0 mm 7 mps 749 mmHg 85%
    23:00 +2°C° 0 mm 8 mps 748 mmHg 84%

    1 March, Friday

    Time Temperature Precipitation Wind Pressure Humidity
    00:00 +2°C° 0 mm 8 mps 748 mmHg 85%
    01:00 +2°C° 0 mm 8 mps 747 mmHg 86%
    02:00 +4°C° 0 mm 8 mps 746 mmHg 87%
    03:00 +4°C° 0 mm 8 mps 746 mmHg 87%
    04:00 +4°C° 0 mm 7 mps 745 mmHg 87%
    05:00 +4°C° 0 mm 7 mps 745 mmHg 87%
    06:00 +4°C° 0 mm 7 mps 745 mmHg 85%
    07:00 +4°C° 0 mm 7 mps 745 mmHg 84%
    08:00 +4°C° 0 mm 6 mps 745 mmHg 82%
    09:00 +5°C° 0.1 mm 7 mps 746 mmHg 76%
    10:00 +5°C° 0.1 mm 7 mps 746 mmHg 70%
    11:00 +5°C° 0.1 mm 8 mps 746 mmHg 64%
    12:00 +5°C° 0 mm 8 mps 746 mmHg 63%
    13:00 +5°C° 0 mm 8 mps 746 mmHg 61%
    14:00 +5°C° 0 mm 8 mps 747 mmHg 59%
    15:00 +5°C° 0 mm 8 mps 747 mmHg 62%
    16:00 +4°C° 0 mm 7 mps 747 mmHg 65%
    17:00 +3°C° 0 mm 6 mps 748 mmHg 68%
    18:00 +3°C° 0 mm 6 mps 748 mmHg 69%
    19:00 +3°C° 0 mm 5 mps 748 mmHg 71%
    20:00 +3°C° 0 mm 4 mps 749 mmHg 72%
    21:00 +3°C° 0 mm 4 mps 749 mmHg 72%
    22:00 +2°C° 0 mm 3 mps 749 mmHg 72%
    23:00 +2°C° 0 mm 3 mps 749 mmHg 72%
    Show more